Location: Byszew
(52.1813°N, 19.2693°E)
Time: 22:56:39
(UTC+00:00)

Cosmos 2322 Rocket - Pass Details

Date: 24 June 2021
Orbit: 833 x 850 km, 71.0° (Epoch: 26 July)

Event Time Altitude Azimuth Distance (km) Brightness Sun altitude
Rises 21:32:55 0° 282° (WNW) 3,421 5.8 -12.8°
Reaches altitude 10° 21:36:37 10° 306° (NW) 2,486 5.5 -12.9°
Maximum altitude 21:39:43 15° 339° (NNW) 2,169 5.6 -13.1°
Drops below altitude 10° 21:42:50 10° 13° (NNE) 2,487 5.7 -13.2°
Sets 21:46:32 0° 37° (NE) 3,422 6.0 -13.3°
